| time (UTC) | temp F | wind direction | speed MPH | gust MPH | rain 1hr in | rain 24hr in | rain mn in | humidity % | barometer mb |
| 20260906235720 | 86 | 207 | 3.0 | 3.0 | 0.00 | 0.24 | 0.24 | 70 | 1014.6 |
| 20260906235216 | 86 | 219 | 2.0 | 2.0 | 0.00 | 0.24 | 0.24 | 74 | 1014.4 |
| 20260906234715 | 86 | 199 | 1.0 | 1.0 | 0.00 | 0.24 | 0.24 | 73 | 1014.4 |
| 20260906234210 | 86 | 219 | 1.0 | 1.0 | 0.00 | 0.24 | 0.24 | 73 | 1014.4 |
| 20260906233709 | 86 | 198 | 1.0 | 2.0 | 0.00 | 0.24 | 0.24 | 74 | 1014.2 |
| 20260906233209 | 86 | 200 | 1.0 | 2.0 | 0.00 | 0.24 | 0.24 | 75 | 1014.5 |
| 20260906232704 | 85 | 148 | 3.0 | 3.0 | 0.00 | 0.24 | 0.24 | 76 | 1014.6 |
| 20260906232159 | 84 | 216 | 0.0 | 1.0 | 0.00 | 0.24 | 0.24 | 79 | 1014.6 |
| 20260906231653 | 83 | 196 | 1.0 | 1.0 | 0.00 | 0.24 | 0.24 | 80 | 1014.5 |
| 20260906231148 | 82 | 223 | 0.0 | 0.0 | 0.00 | 0.24 | 0.24 | 83 | 1014.6 |
| 20260906230647 | 82 | 223 | 0.0 | 0.0 | 0.00 | 0.24 | 0.24 | 87 | 1014.7 |
| 20260906230142 | 80 | 218 | 0.0 | 0.0 | 0.00 | 0.24 | 0.24 | 92 | 1014.5 |
| 20260906225642 | 80 | 223 | 0.0 | 0.0 | 0.00 | 0.24 | 0.24 | 96 | 1014.7 |
| 20260906225138 | 80 | 214 | 0.0 | 0.0 | 0.00 | 0.24 | 0.24 | 98 | 1014.7 |
| 20260906224632 | 80 | 213 | 0.0 | 1.0 | 0.00 | 0.24 | 0.24 | 98 | 1015.0 |
| 20260906224129 | 80 | 223 | 0.0 | 0.0 | 0.00 | 0.24 | 0.24 | 98 | 1015.2 |
| 20260906223625 | 80 | 222 | 0.0 | 0.0 | 0.00 | 0.24 | 0.24 | 98 | 1015.1 |
| 20260906223124 | 80 | 201 | 1.0 | 2.0 | 0.00 | 0.24 | 0.24 | 97 | 1014.7 |
| 20260906222623 | 80 | 190 | 0.0 | 0.0 | 0.00 | 0.24 | 0.24 | 99 | 1014.9 |
| 20260906222122 | 79 | 232 | 0.0 | 0.0 | 0.00 | 0.24 | 0.24 | 97 | 1015.0 |
| 20260906221621 | 79 | 232 | 0.0 | 0.0 | 0.12 | 0.24 | 0.24 | 97 | 1015.1 |
| 20260906221115 | 80 | 241 | 0.0 | 0.0 | 0.40 | 0.24 | 0.24 | 96 | 1015.1 |
| 20260906220610 | 81 | 227 | 0.0 | 0.0 | 0.83 | 0.22 | 0.22 | 93 | 1015.3 |
| 20260906220106 | 82 | 239 | 0.0 | 1.0 | 0.92 | 0.17 | 0.17 | 89 | 1015.4 |
| 20260906215605 | 88 | 170 | 4.0 | 5.0 | 0.38 | 0.08 | 0.08 | 78 | 1015.4 |
| 20260906215103 | 93 | 185 | 9.0 | 11.0 | 0.00 | 0.02 | 0.02 | 59 | 1015.1 |
| 20260906214601 | 95 | 168 | 11.0 | 14.0 | 0.00 | 0.02 | 0.02 | 55 | 1015.1 |
| 20260906214057 | 96 | 190 | 1.0 | 2.0 | 0.00 | 0.02 | 0.02 | 51 | 1015.2 |
| 20260906213556 | 96 | 197 | 2.0 | 2.0 | 0.00 | 0.02 | 0.02 | 49 | 1015.0 |
| 20260906213050 | 97 | 280 | 1.0 | 2.0 | 0.00 | 0.02 | 0.02 | 48 | 1015.1 |
| 20260906212543 | 96 | 166 | 2.0 | 3.0 | 0.00 | 0.02 | 0.02 | 48 | 1015.1 |
| 20260906212039 | 96 | 227 | 1.0 | 2.0 | 0.00 | 0.02 | 0.02 | 53 | 1015.3 |
| 20260906211539 | 96 | 198 | 0.0 | 1.0 | 0.00 | 0.02 | 0.02 | 52 | 1015.2 |
| 20260906211034 | 96 | 345 | 1.0 | 2.0 | 0.00 | 0.02 | 0.02 | 51 | 1015.4 |
| 20260906210529 | 96 | 252 | 2.0 | 3.0 | 0.00 | 0.02 | 0.02 | 51 | 1015.4 |
| 20260906210024 | 97 | 240 | 0.0 | 0.0 | 0.00 | 0.02 | 0.02 | 50 | 1015.5 |
| 20260906205519 | 97 | 238 | 0.0 | 0.0 | 0.00 | 0.02 | 0.02 | 49 | 1015.3 |
| 20260906205015 | 97 | 191 | 5.0 | 8.0 | 0.00 | 0.02 | 0.02 | 48 | 1015.6 |
| 20260906204514 | 98 | 199 | 3.0 | 3.0 | 0.00 | 0.02 | 0.02 | 48 | 1015.9 |
| 20260906204009 | 96 | 160 | 1.0 | 2.0 | 0.00 | 0.02 | 0.02 | 50 | 1015.8 |
| 20260906203504 | 95 | 282 | 2.0 | 2.0 | 0.00 | 0.02 | 0.02 | 53 | 1015.9 |
| 20260906203003 | 95 | 287 | 1.0 | 1.0 | 0.00 | 0.02 | 0.02 | 53 | 1015.7 |
| 20260906202500 | 96 | 289 | 0.0 | 1.0 | 0.00 | 0.02 | 0.02 | 53 | 1015.9 |
| 20260906201955 | 95 | 285 | 0.0 | 1.0 | 0.00 | 0.02 | 0.02 | 54 | 1016.1 |
| 20260906201450 | 95 | 278 | 0.0 | 0.0 | 0.00 | 0.02 | 0.02 | 54 | 1016.1 |
| 20260906200944 | 95 | 328 | 2.0 | 3.0 | 0.00 | 0.02 | 0.02 | 52 | 1016.0 |
| 20260906200440 | 95 | 319 | 3.0 | 3.0 | 0.00 | 0.02 | 0.02 | 54 | 1016.0 |
| 20260906195935 | 95 | 326 | 2.0 | 3.0 | 0.00 | 0.02 | 0.02 | 54 | 1016.1 |
| 20260906195431 | 95 | 202 | 1.0 | 2.0 | 0.00 | 0.02 | 0.02 | 53 | 1016.4 |
| 20260906194927 | 96 | 183 | 1.0 | 2.0 | 0.00 | 0.02 | 0.02 | 54 | 1016.3 |
| 20260906194423 | 93 | 239 | 1.0 | 1.0 | 0.00 | 0.02 | 0.02 | 58 | 1016.3 |
| 20260906193918 | 95 | 236 | 0.0 | 0.0 | 0.00 | 0.02 | 0.02 | 56 | 1016.3 |
| 20260906193413 | 94 | 163 | 2.0 | 3.0 | 0.00 | 0.02 | 0.02 | 53 | 1016.4 |
| 20260906192909 | 93 | 231 | 1.0 | 1.0 | 0.00 | 0.02 | 0.02 | 58 | 1016.5 |
| 20260906192408 | 94 | 149 | 8.0 | 9.0 | 0.00 | 0.02 | 0.02 | 55 | 1016.5 |
| 20260906191907 | 94 | 198 | 2.0 | 5.0 | 0.00 | 0.02 | 0.02 | 57 | 1016.7 |
| 20260906191402 | 94 | 217 | 1.0 | 3.0 | 0.00 | 0.02 | 0.02 | 55 | 1016.7 |
| 20260906190902 | 94 | 260 | 1.0 | 1.0 | 0.00 | 0.02 | 0.02 | 58 | 1016.6 |
| 20260906190401 | 93 | 205 | 1.0 | 2.0 | 0.00 | 0.02 | 0.02 | 57 | 1017.0 |
| 20260906185856 | 93 | 248 | 0.0 | 1.0 | 0.00 | 0.02 | 0.02 | 61 | 1016.8 |
| 20260906185355 | 93 | 212 | 0.0 | 1.0 | 0.00 | 0.02 | 0.02 | 59 | 1017.0 |
| 20260906184855 | 92 | 232 | 0.0 | 0.0 | 0.00 | 0.02 | 0.02 | 58 | 1016.8 |
| 20260906184349 | 94 | 238 | 0.0 | 0.0 | 0.00 | 0.02 | 0.02 | 58 | 1016.7 |
| 20260906183845 | 93 | 232 | 0.0 | 0.0 | 0.00 | 0.02 | 0.02 | 58 | 1016.7 |
| 20260906183342 | 94 | 280 | 1.0 | 2.0 | 0.00 | 0.02 | 0.02 | 57 | 1016.8 |
| 20260906182842 | 94 | 212 | 0.0 | 0.0 | 0.00 | 0.02 | 0.02 | 57 | 1017.0 |
| 20260906182337 | 94 | 178 | 1.0 | 1.0 | 0.00 | 0.02 | 0.02 | 62 | 1017.1 |
| 20260906181832 | 94 | 225 | 4.0 | 5.0 | 0.00 | 0.02 | 0.02 | 57 | 1017.1 |
| 20260906181328 | 92 | 239 | 0.0 | 0.0 | 0.00 | 0.02 | 0.02 | 62 | 1017.3 |
| 20260906180823 | 94 | 181 | 2.0 | 3.0 | 0.00 | 0.02 | 0.02 | 59 | 1017.5 |
| 20260906180318 | 93 | 217 | 0.0 | 1.0 | 0.00 | 0.02 | 0.02 | 61 | 1017.3 |
| 20260906175815 | 93 | 215 | 0.0 | 1.0 | 0.00 | 0.02 | 0.02 | 61 | 1017.4 |
| 20260906175311 | 92 | 215 | 1.0 | 1.0 | 0.00 | 0.02 | 0.02 | 63 | 1017.9 |
| 20260906174809 | 91 | 242 | 1.0 | 1.0 | 0.00 | 0.02 | 0.02 | 65 | 1017.7 |
| 20260906174304 | 91 | 230 | 0.0 | 0.0 | 0.00 | 0.02 | 0.02 | 66 | 1018.0 |
| 20260906173759 | 90 | 218 | 0.0 | 0.0 | 0.00 | 0.02 | 0.02 | 65 | 1017.9 |
| 20260906173254 | 91 | 188 | 2.0 | 3.0 | 0.00 | 0.02 | 0.02 | 63 | 1018.0 |
| 20260906172753 | 90 | 261 | 1.0 | 1.0 | 0.00 | 0.02 | 0.02 | 65 | 1018.1 |
| 20260906172249 | 89 | 240 | 0.0 | 0.0 | 0.00 | 0.02 | 0.02 | 67 | 1018.4 |
| 20260906171744 | 89 | 234 | 0.0 | 0.0 | 0.00 | 0.02 | 0.02 | 68 | 1018.4 |
| 20260906171239 | 88 | 238 | 0.0 | 0.0 | 0.00 | 0.02 | 0.02 | 74 | 1018.2 |
| 20260906170735 | 87 | 242 | 0.0 | 0.0 | 0.00 | 0.02 | 0.02 | 74 | 1018.4 |
| 20260906170230 | 86 | 285 | 1.0 | 2.0 | 0.00 | 0.02 | 0.02 | 75 | 1018.4 |
| 20260906165727 | 86 | 243 | 0.0 | 1.0 | 0.00 | 0.02 | 0.02 | 78 | 1018.5 |
| 20260906165221 | 86 | 242 | 0.0 | 0.0 | 0.00 | 0.02 | 0.02 | 78 | 1018.6 |
| 20260906164720 | 85 | 241 | 0.0 | 0.0 | 0.00 | 0.02 | 0.02 | 77 | 1018.8 |
| 20260906164210 | 86 | 241 | 0.0 | 0.0 | 0.00 | 0.02 | 0.02 | 79 | 1018.7 |
| 20260906163706 | 85 | 244 | 0.0 | 0.0 | 0.00 | 0.02 | 0.02 | 79 | 1018.7 |
| 20260906163202 | 85 | 216 | 0.0 | 0.0 | 0.00 | 0.02 | 0.02 | 83 | 1018.6 |
| 20260906162658 | 85 | 223 | 0.0 | 0.0 | 0.00 | 0.02 | 0.02 | 83 | 1018.7 |
| 20260906162158 | 86 | 236 | 0.0 | 0.0 | 0.00 | 0.02 | 0.02 | 81 | 1018.8 |
| 20260906161653 | 86 | 224 | 0.0 | 0.0 | 0.00 | 0.02 | 0.02 | 80 | 1018.7 |
| 20260906161152 | 86 | 236 | 0.0 | 0.0 | 0.00 | 0.02 | 0.02 | 81 | 1018.5 |
| 20260906160651 | 85 | 224 | 0.0 | 0.0 | 0.00 | 0.02 | 0.02 | 80 | 1018.6 |
| 20260906160150 | 85 | 232 | 0.0 | 0.0 | 0.00 | 0.02 | 0.02 | 81 | 1018.5 |
| 20260906155648 | 85 | 225 | 0.0 | 0.0 | 0.00 | 0.02 | 0.02 | 82 | 1018.5 |
| 20260906155144 | 87 | 238 | 0.0 | 1.0 | 0.00 | 0.02 | 0.02 | 80 | 1018.6 |
| 20260906154639 | 88 | 224 | 0.0 | 0.0 | 0.00 | 0.02 | 0.02 | 82 | 1018.4 |
| 20260906154138 | 86 | 224 | 0.0 | 0.0 | 0.00 | 0.02 | 0.02 | 83 | 1018.6 |
| 20260906153637 | 85 | 224 | 0.0 | 0.0 | 0.00 | 0.02 | 0.02 | 88 | 1018.5 |
| 20260906153133 | 87 | 225 | 0.0 | 0.0 | 0.05 | 0.02 | 0.02 | 83 | 1018.4 |
| 20260906152627 | 87 | 225 | 0.0 | 0.0 | 0.05 | 0.02 | 0.02 | 84 | 1018.4 |
| 20260906152121 | 85 | 224 | 0.0 | 0.0 | 0.07 | 0.01 | 0.01 | 85 | 1018.4 |
| 20260906151616 | 85 | 224 | 0.0 | 0.0 | 0.07 | 0.01 | 0.01 | 85 | 1018.2 |
| 20260906151112 | 85 | 224 | 0.0 | 0.0 | 0.00 | 0.00 | 0.00 | 84 | 1018.2 |
| 20260906150607 | 85 | 236 | 0.0 | 0.0 | 0.00 | 0.00 | 0.00 | 81 | 1018.2 |
| 20260906145601 | 85 | 224 | 0.0 | 0.0 | 0.00 | 0.00 | 0.00 | 78 | 1017.9 |
| 20260906145055 | 84 | 231 | 0.0 | 0.0 | 0.00 | 0.00 | 0.00 | 78 | 1017.9 |
| 20260906144544 | 84 | 235 | 0.0 | 2.0 | 0.00 | 0.00 | 0.00 | 77 | 1017.9 |
| 20260906144040 | 84 | 212 | 2.0 | 2.0 | 0.00 | 0.00 | 0.00 | 77 | 1018.0 |
| 20260906143534 | 84 | 224 | 0.0 | 0.0 | 0.00 | 0.00 | 0.00 | 78 | 1018.2 |
| 20260906143031 | 84 | 240 | 0.0 | 0.0 | 0.00 | 0.00 | 0.00 | 80 | 1018.0 |
| 20260906142525 | 84 | 224 | 3.0 | 3.0 | 0.00 | 0.00 | 0.00 | 78 | 1018.0 |
| 20260906142021 | 83 | 223 | 0.0 | 0.0 | 0.00 | 0.00 | 0.00 | 79 | 1018.2 |
| 20260906141519 | 83 | 218 | 1.0 | 1.0 | 0.00 | 0.00 | 0.00 | 80 | 1018.2 |
| 20260906141015 | 82 | 221 | 1.0 | 2.0 | 0.00 | 0.00 | 0.00 | 81 | 1017.9 |
| 20260906140509 | 82 | 216 | 0.0 | 1.0 | 0.00 | 0.00 | 0.00 | 82 | 1017.9 |
| 20260906140008 | 82 | 171 | 2.0 | 2.0 | 0.00 | 0.00 | 0.00 | 82 | 1018.1 |
| 20260906135505 | 81 | 222 | 0.0 | 1.0 | 0.00 | 0.00 | 0.00 | 83 | 1017.9 |
| 20260906135001 | 81 | 184 | 1.0 | 2.0 | 0.00 | 0.00 | 0.00 | 84 | 1017.9 |
| 20260906134457 | 81 | 185 | 1.0 | 2.0 | 0.00 | 0.00 | 0.00 | 84 | 1017.8 |
| 20260906133956 | 81 | 176 | 2.0 | 2.0 | 0.00 | 0.00 | 0.00 | 85 | 1017.6 |
| 20260906133453 | 81 | 204 | 3.0 | 3.0 | 0.00 | 0.00 | 0.00 | 85 | 1017.6 |
| 20260906132948 | 81 | 201 | 1.0 | 1.0 | 0.00 | 0.00 | 0.00 | 85 | 1017.7 |
| 20260906132443 | 80 | 203 | 1.0 | 1.0 | 0.00 | 0.00 | 0.00 | 86 | 1017.5 |
| 20260906131938 | 80 | 167 | 3.0 | 3.0 | 0.00 | 0.00 | 0.00 | 86 | 1017.3 |
| 20260906131434 | 79 | 205 | 2.0 | 2.0 | 0.00 | 0.00 | 0.00 | 88 | 1017.4 |
| 20260906130929 | 79 | 207 | 0.0 | 0.0 | 0.00 | 0.00 | 0.00 | 88 | 1017.2 |
| 20260906130429 | 79 | 205 | 1.0 | 2.0 | 0.00 | 0.00 | 0.00 | 88 | 1017.1 |
| 20260906125929 | 79 | 203 | 1.0 | 2.0 | 0.00 | 0.00 | 0.00 | 88 | 1017.1 |
| 20260906125426 | 78 | 219 | 0.0 | 0.0 | 0.00 | 0.00 | 0.00 | 89 | 1017.1 |
| 20260906124925 | 78 | 219 | 0.0 | 0.0 | 0.00 | 0.00 | 0.00 | 89 | 1017.1 |
| 20260906124422 | 78 | 219 | 0.0 | 0.0 | 0.00 | 0.00 | 0.00 | 89 | 1017.1 |
| 20260906123916 | 78 | 219 | 0.0 | 0.0 | 0.00 | 0.00 | 0.00 | 89 | 1017.0 |
| 20260906123415 | 78 | 219 | 0.0 | 0.0 | 0.00 | 0.00 | 0.00 | 89 | 1017.1 |
| 20260906122915 | 78 | 218 | 0.0 | 0.0 | 0.00 | 0.00 | 0.00 | 89 | 1016.6 |
| 20260906122410 | 78 | 219 | 0.0 | 0.0 | 0.00 | 0.00 | 0.00 | 89 | 1016.7 |
| 20260906121907 | 78 | 218 | 0.0 | 0.0 | 0.00 | 0.00 | 0.00 | 89 | 1016.6 |
| 20260906121403 | 77 | 219 | 0.0 | 0.0 | 0.00 | 0.00 | 0.00 | 90 | 1016.5 |
| 20260906120859 | 77 | 219 | 0.0 | 0.0 | 0.00 | 0.00 | 0.00 | 90 | 1016.5 |
| 20260906120354 | 77 | 220 | 0.0 | 0.0 | 0.00 | 0.00 | 0.00 | 90 | 1016.3 |
| 20260906115850 | 77 | 220 | 0.0 | 0.0 | 0.00 | 0.00 | 0.00 | 90 | 1016.3 |
| 20260906115346 | 78 | 220 | 0.0 | 0.0 | 0.00 | 0.00 | 0.00 | 89 | 1016.3 |
| 20260906114845 | 78 | 220 | 0.0 | 0.0 | 0.00 | 0.00 | 0.00 | 88 | 1016.3 |
| 20260906114340 | 78 | 220 | 0.0 | 0.0 | 0.00 | 0.00 | 0.00 | 88 | 1015.9 |
| 20260906113835 | 78 | 220 | 0.0 | 0.0 | 0.00 | 0.00 | 0.00 | 88 | 1015.9 |
| 20260906113334 | 78 | 220 | 0.0 | 0.0 | 0.00 | 0.00 | 0.00 | 88 | 1015.9 |
| 20260906112830 | 78 | 220 | 0.0 | 0.0 | 0.00 | 0.00 | 0.00 | 88 | 1015.8 |
| 20260906112326 | 78 | 220 | 0.0 | 0.0 | 0.00 | 0.00 | 0.00 | 88 | 1015.7 |
| 20260906111826 | 78 | 220 | 0.0 | 0.0 | 0.00 | 0.00 | 0.00 | 88 | 1015.6 |
| 20260906111320 | 78 | 220 | 0.0 | 0.0 | 0.00 | 0.00 | 0.00 | 88 | 1015.5 |
| 20260906110815 | 78 | 220 | 0.0 | 0.0 | 0.00 | 0.00 | 0.00 | 88 | 1015.7 |
| 20260906110311 | 78 | 220 | 0.0 | 0.0 | 0.00 | 0.00 | 0.00 | 88 | 1015.4 |
| 20260906105809 | 78 | 220 | 0.0 | 0.0 | 0.00 | 0.00 | 0.00 | 88 | 1015.4 |
| 20260906105306 | 78 | 220 | 0.0 | 0.0 | 0.00 | 0.00 | 0.00 | 89 | 1015.2 |
| 20260906104801 | 78 | 220 | 0.0 | 0.0 | 0.00 | 0.00 | 0.00 | 88 | 1015.5 |
| 20260906104259 | 78 | 220 | 0.0 | 0.0 | 0.00 | 0.00 | 0.00 | 87 | 1015.6 |
| 20260906103758 | 78 | 220 | 0.0 | 0.0 | 0.00 | 0.00 | 0.00 | 87 | 1015.4 |
| 20260906103257 | 78 | 220 | 0.0 | 0.0 | 0.00 | 0.00 | 0.00 | 87 | 1015.4 |
| 20260906102753 | 78 | 220 | 0.0 | 0.0 | 0.00 | 0.00 | 0.00 | 87 | 1015.4 |
| 20260906102252 | 78 | 220 | 0.0 | 0.0 | 0.00 | 0.00 | 0.00 | 88 | 1015.4 |
| 20260906101747 | 78 | 220 | 0.0 | 0.0 | 0.00 | 0.00 | 0.00 | 88 | 1015.5 |
| 20260906101242 | 78 | 220 | 0.0 | 0.0 | 0.00 | 0.00 | 0.00 | 87 | 1015.5 |
| 20260906100738 | 78 | 220 | 0.0 | 0.0 | 0.00 | 0.00 | 0.00 | 87 | 1015.5 |
| 20260906100237 | 78 | 220 | 0.0 | 0.0 | 0.00 | 0.00 | 0.00 | 87 | 1015.3 |
| 20260906095733 | 79 | 220 | 0.0 | 0.0 | 0.00 | 0.00 | 0.00 | 87 | 1015.4 |
| 20260906095228 | 79 | 220 | 0.0 | 0.0 | 0.00 | 0.00 | 0.00 | 86 | 1015.5 |
| 20260906094726 | 79 | 219 | 0.0 | 0.0 | 0.00 | 0.00 | 0.00 | 86 | 1015.6 |
| 20260906094216 | 79 | 219 | 0.0 | 0.0 | 0.00 | 0.00 | 0.00 | 86 | 1015.7 |
| 20260906093713 | 79 | 219 | 0.0 | 0.0 | 0.00 | 0.00 | 0.00 | 86 | 1015.5 |
| 20260906093208 | 79 | 219 | 0.0 | 0.0 | 0.00 | 0.00 | 0.00 | 86 | 1015.5 |
| 20260906092703 | 79 | 219 | 0.0 | 0.0 | 0.00 | 0.00 | 0.00 | 86 | 1015.4 |
| 20260906092202 | 79 | 220 | 0.0 | 0.0 | 0.00 | 0.00 | 0.00 | 86 | 1015.6 |
| 20260906091659 | 79 | 219 | 0.0 | 0.0 | 0.00 | 0.00 | 0.00 | 86 | 1015.6 |
| 20260906091155 | 79 | 221 | 0.0 | 0.0 | 0.00 | 0.00 | 0.00 | 86 | 1015.3 |
| 20260906090651 | 79 | 220 | 0.0 | 0.0 | 0.00 | 0.00 | 0.00 | 85 | 1015.3 |
| 20260906090150 | 79 | 230 | 0.0 | 0.0 | 0.00 | 0.00 | 0.00 | 85 | 1015.4 |
| 20260906085649 | 79 | 231 | 0.0 | 0.0 | 0.00 | 0.00 | 0.00 | 85 | 1015.5 |
| 20260906085148 | 80 | 220 | 0.0 | 0.0 | 0.00 | 0.00 | 0.00 | 84 | 1015.4 |
| 20260906084643 | 80 | 222 | 0.0 | 0.0 | 0.00 | 0.00 | 0.00 | 84 | 1015.3 |
| 20260906084143 | 80 | 234 | 0.0 | 0.0 | 0.00 | 0.00 | 0.00 | 83 | 1015.3 |
| 20260906083638 | 80 | 234 | 0.0 | 0.0 | 0.00 | 0.00 | 0.00 | 82 | 1015.4 |
| 20260906083133 | 81 | 221 | 0.0 | 0.0 | 0.00 | 0.00 | 0.00 | 81 | 1015.5 |
| 20260906082628 | 81 | 219 | 0.0 | 0.0 | 0.00 | 0.00 | 0.00 | 80 | 1015.5 |
| 20260906082124 | 81 | 206 | 0.0 | 0.0 | 0.00 | 0.00 | 0.00 | 80 | 1015.5 |
| 20260906081619 | 81 | 221 | 0.0 | 0.0 | 0.00 | 0.00 | 0.00 | 80 | 1015.6 |
| 20260906081115 | 81 | 220 | 0.0 | 0.0 | 0.00 | 0.00 | 0.00 | 81 | 1015.5 |
| 20260906080611 | 81 | 220 | 0.0 | 0.0 | 0.00 | 0.00 | 0.00 | 80 | 1015.5 |
| 20260906080107 | 82 | 220 | 0.0 | 0.0 | 0.00 | 0.00 | 0.00 | 80 | 1015.7 |
| 20260906075601 | 82 | 219 | 1.0 | 1.0 | 0.00 | 0.00 | 0.00 | 79 | 1015.6 |
| 20260906075101 | 82 | 219 | 0.0 | 1.0 | 0.00 | 0.00 | 0.00 | 79 | 1015.8 |
| 20260906074557 | 82 | 229 | 0.0 | 0.0 | 0.00 | 0.00 | 0.00 | 79 | 1016.0 |
| 20260906074055 | 82 | 218 | 0.0 | 0.0 | 0.00 | 0.00 | 0.00 | 79 | 1016.0 |
| 20260906073550 | 82 | 219 | 1.0 | 1.0 | 0.00 | 0.00 | 0.00 | 78 | 1016.0 |
| 20260906073046 | 82 | 232 | 0.0 | 0.0 | 0.00 | 0.00 | 0.00 | 78 | 1015.9 |
| 20260906072541 | 83 | 219 | 0.0 | 0.0 | 0.00 | 0.00 | 0.00 | 78 | 1015.9 |
| 20260906072037 | 83 | 239 | 1.0 | 1.0 | 0.00 | 0.00 | 0.00 | 77 | 1016.2 |
| 20260906071533 | 83 | 212 | 2.0 | 3.0 | 0.00 | 0.00 | 0.00 | 77 | 1016.2 |
| 20260906071028 | 83 | 212 | 0.0 | 0.0 | 0.00 | 0.00 | 0.00 | 77 | 1016.2 |
| 20260906070524 | 83 | 212 | 2.0 | 5.0 | 0.00 | 0.00 | 0.00 | 77 | 1016.3 |
| 20260906070014 | 83 | 216 | 0.0 | 0.0 | 0.00 | 0.00 | 0.00 | 78 | 1016.5 |
| 20260906065513 | 83 | 215 | 0.0 | 0.0 | 0.00 | 0.00 | 0.00 | 77 | 1016.4 |
| 20260906065009 | 83 | 217 | 0.0 | 0.0 | 0.00 | 0.00 | 0.00 | 77 | 1016.5 |
| 20260906064505 | 83 | 197 | 0.0 | 0.0 | 0.00 | 0.00 | 0.00 | 77 | 1016.4 |
| 20260906064000 | 83 | 205 | 1.0 | 1.0 | 0.00 | 0.00 | 0.00 | 77 | 1016.2 |
| 20260906063455 | 83 | 206 | 1.0 | 1.0 | 0.00 | 0.00 | 0.00 | 76 | 1016.3 |
| 20260906062955 | 83 | 217 | 0.0 | 0.0 | 0.00 | 0.00 | 0.00 | 77 | 1016.3 |
| 20260906062450 | 84 | 219 | 0.0 | 0.0 | 0.00 | 0.00 | 0.00 | 76 | 1016.6 |
| 20260906061945 | 84 | 219 | 1.0 | 1.0 | 0.00 | 0.00 | 0.00 | 75 | 1016.5 |
| 20260906061436 | 84 | 203 | 1.0 | 2.0 | 0.00 | 0.00 | 0.00 | 75 | 1016.6 |
| 20260906060935 | 84 | 215 | 0.0 | 0.0 | 0.00 | 0.00 | 0.00 | 75 | 1016.7 |
| 20260906060433 | 84 | 207 | 1.0 | 2.0 | 0.00 | 0.00 | 0.00 | 75 | 1016.7 |
| 20260906055929 | 84 | 215 | 1.0 | 1.0 | 0.00 | 0.00 | 0.00 | 74 | 1016.8 |
| 20260906055425 | 84 | 215 | 2.0 | 2.0 | 0.00 | 0.00 | 0.00 | 74 | 1016.5 |
| 20260906054920 | 84 | 207 | 2.0 | 2.0 | 0.00 | 0.00 | 0.00 | 74 | 1016.4 |
| 20260906054414 | 84 | 207 | 1.0 | 2.0 | 0.00 | 0.00 | 0.00 | 74 | 1016.4 |
| 20260906053911 | 84 | 209 | 0.0 | 0.0 | 0.00 | 0.00 | 0.00 | 74 | 1016.3 |
| 20260906053406 | 84 | 206 | 0.0 | 0.0 | 0.00 | 0.00 | 0.00 | 73 | 1016.3 |
| 20260906052902 | 85 | 205 | 0.0 | 0.0 | 0.00 | 0.00 | 0.00 | 73 | 1016.5 |
| 20260906052358 | 85 | 205 | 2.0 | 3.0 | 0.00 | 0.00 | 0.00 | 72 | 1016.5 |
| 20260906051855 | 84 | 170 | 3.0 | 3.0 | 0.00 | 0.00 | 0.00 | 73 | 1016.3 |
| 20260906051354 | 85 | 203 | 1.0 | 1.0 | 0.00 | 0.00 | 0.00 | 73 | 1016.6 |
| 20260906050850 | 85 | 205 | 0.0 | 0.0 | 0.00 | 0.00 | 0.00 | 73 | 1016.5 |
| 20260906050345 | 85 | 160 | 2.0 | 2.0 | 0.00 | 0.00 | 0.00 | 72 | 1016.6 |
| 20260906045844 | 85 | 192 | 4.0 | 5.0 | 0.00 | 0.00 | 0.00 | 72 | 1016.6 |
| 20260906045338 | 86 | 164 | 3.0 | 3.0 | 0.00 | 0.00 | 0.00 | 72 | 1016.6 |
| 20260906044835 | 86 | 205 | 1.0 | 1.0 | 0.00 | 0.00 | 0.00 | 71 | 1016.6 |
| 20260906044334 | 86 | 208 | 2.0 | 2.0 | 0.00 | 0.00 | 0.00 | 71 | 1016.4 |
| 20260906043830 | 86 | 217 | 2.0 | 2.0 | 0.00 | 0.00 | 0.00 | 71 | 1016.4 |
| 20260906043326 | 86 | 173 | 4.0 | 5.0 | 0.00 | 0.00 | 0.00 | 71 | 1017.0 |
| 20260906042827 | 86 | 204 | 2.0 | 2.0 | 0.00 | 0.00 | 0.00 | 70 | 1016.5 |
| 20260906042325 | 86 | 198 | 7.0 | 9.0 | 0.00 | 0.00 | 0.00 | 70 | 1016.4 |
| 20260906041821 | 86 | 210 | 3.0 | 5.0 | 0.00 | 0.00 | 0.00 | 69 | 1016.3 |
| 20260906041317 | 86 | 205 | 1.0 | 2.0 | 0.00 | 0.00 | 0.00 | 69 | 1016.3 |
| 20260906040811 | 87 | 146 | 5.0 | 7.0 | 0.00 | 0.00 | 0.00 | 68 | 1016.4 |
| 20260906040307 | 87 | 189 | 3.0 | 6.0 | 0.00 | 0.00 | 0.00 | 68 | 1016.3 |
| 20260906035802 | 87 | 111 | 5.0 | 10.0 | 0.00 | 0.00 | 0.00 | 67 | 1016.4 |
| 20260906035257 | 87 | 182 | 5.0 | 6.0 | 0.00 | 0.00 | 0.00 | 67 | 1016.3 |
| 20260906034757 | 87 | 199 | 6.0 | 10.0 | 0.00 | 0.00 | 0.00 | 66 | 1016.4 |
| 20260906034252 | 88 | 233 | 5.0 | 6.0 | 0.00 | 0.00 | 0.00 | 66 | 1016.3 |
| 20260906033748 | 88 | 179 | 5.0 | 6.0 | 0.00 | 0.00 | 0.00 | 65 | 1016.1 |
| 20260906033247 | 88 | 146 | 3.0 | 5.0 | 0.00 | 0.00 | 0.00 | 64 | 1016.2 |
| 20260906032744 | 89 | 136 | 3.0 | 6.0 | 0.00 | 0.00 | 0.00 | 63 | 1016.1 |
| 20260906032244 | 89 | 194 | 5.0 | 7.0 | 0.00 | 0.00 | 0.00 | 62 | 1016.2 |
| 20260906031739 | 89 | 215 | 5.0 | 9.0 | 0.00 | 0.00 | 0.00 | 62 | 1016.0 |
| 20260906031235 | 89 | 174 | 8.0 | 14.0 | 0.00 | 0.00 | 0.00 | 61 | 1016.0 |
| 20260906030735 | 89 | 135 | 4.0 | 5.0 | 0.00 | 0.00 | 0.00 | 61 | 1015.8 |
| 20260906030230 | 89 | 129 | 7.0 | 10.0 | 0.00 | 0.00 | 0.00 | 61 | 1015.6 |
| 20260906025729 | 89 | 214 | 0.0 | 0.0 | 0.00 | 0.00 | 0.00 | 61 | 1015.7 |
| 20260906025224 | 89 | 238 | 0.0 | 0.0 | 0.00 | 0.00 | 0.00 | 61 | 1015.3 |
| 20260906024723 | 89 | 170 | 3.0 | 3.0 | 0.00 | 0.00 | 0.00 | 60 | 1015.3 |
| 20260906024222 | 89 | 207 | 4.0 | 6.0 | 0.00 | 0.00 | 0.00 | 60 | 1015.2 |
| 20260906023718 | 89 | 225 | 3.0 | 3.0 | 0.00 | 0.00 | 0.00 | 60 | 1015.1 |
| 20260906023213 | 89 | 172 | 1.0 | 2.0 | 0.00 | 0.00 | 0.00 | 60 | 1014.9 |
| 20260906022708 | 90 | 130 | 3.0 | 5.0 | 0.00 | 0.00 | 0.00 | 59 | 1014.7 |
| 20260906022204 | 90 | 92 | 4.0 | 5.0 | 0.00 | 0.00 | 0.00 | 59 | 1014.9 |
| 20260906021659 | 90 | 111 | 4.0 | 6.0 | 0.00 | 0.00 | 0.00 | 58 | 1014.6 |
| 20260906021157 | 90 | 216 | 2.0 | 3.0 | 0.00 | 0.00 | 0.00 | 58 | 1014.6 |
| 20260906020653 | 90 | 213 | 3.0 | 5.0 | 0.00 | 0.00 | 0.00 | 57 | 1014.4 |
| 20260906020147 | 91 | 193 | 2.0 | 3.0 | 0.00 | 0.00 | 0.00 | 57 | 1014.4 |
| 20260906015642 | 91 | 176 | 2.0 | 2.0 | 0.00 | 0.00 | 0.00 | 56 | 1014.5 |
| 20260906015140 | 91 | 169 | 3.0 | 3.0 | 0.00 | 0.00 | 0.00 | 56 | 1014.3 |
| 20260906014635 | 91 | 196 | 2.0 | 3.0 | 0.00 | 0.00 | 0.00 | 55 | 1014.3 |
| 20260906014131 | 91 | 172 | 5.0 | 6.0 | 0.00 | 0.00 | 0.00 | 55 | 1014.2 |
| 20260906013626 | 92 | 201 | 3.0 | 3.0 | 0.00 | 0.00 | 0.00 | 54 | 1014.3 |
| 20260906013122 | 92 | 152 | 5.0 | 9.0 | 0.00 | 0.00 | 0.00 | 54 | 1014.0 |
| 20260906012616 | 93 | 150 | 7.0 | 8.0 | 0.00 | 0.00 | 0.00 | 53 | 1013.9 |
| 20260906012116 | 93 | 155 | 4.0 | 5.0 | 0.00 | 0.00 | 0.00 | 52 | 1013.9 |
| 20260906011612 | 93 | 153 | 5.0 | 7.0 | 0.00 | 0.00 | 0.00 | 50 | 1013.8 |
| 20260906011107 | 94 | 196 | 2.0 | 2.0 | 0.00 | 0.00 | 0.00 | 49 | 1013.6 |
| 20260906010602 | 94 | 197 | 4.0 | 6.0 | 0.00 | 0.00 | 0.00 | 48 | 1013.9 |
| 20260906010058 | 94 | 167 | 5.0 | 7.0 | 0.00 | 0.00 | 0.00 | 47 | 1013.8 |
| 20260906005557 | 94 | 193 | 2.0 | 3.0 | 0.00 | 0.00 | 0.00 | 47 | 1013.6 |
| 20260906005057 | 94 | 202 | 2.0 | 3.0 | 0.00 | 0.00 | 0.00 | 46 | 1013.9 |
| 20260906004556 | 94 | 150 | 3.0 | 3.0 | 0.00 | 0.00 | 0.00 | 46 | 1013.8 |
| 20260906004051 | 95 | 205 | 1.0 | 1.0 | 0.00 | 0.00 | 0.00 | 46 | 1014.0 |
| 20260906003546 | 95 | 199 | 3.0 | 3.0 | 0.00 | 0.00 | 0.00 | 45 | 1013.9 |
| 20260906003043 | 95 | 203 | 2.0 | 2.0 | 0.00 | 0.00 | 0.00 | 45 | 1013.9 |
| 20260906002543 | 95 | 155 | 3.0 | 3.0 | 0.00 | 0.00 | 0.00 | 45 | 1013.8 |
| 20260906002037 | 95 | 190 | 4.0 | 6.0 | 0.00 | 0.00 | 0.00 | 45 | 1013.7 |
| 20260906001533 | 95 | 261 | 1.0 | 1.0 | 0.00 | 0.00 | 0.00 | 44 | 1013.6 |
| 20260906001027 | 96 | 158 | 1.0 | 2.0 | 0.00 | 0.00 | 0.00 | 44 | 1013.5 |
| 20260906000523 | 96 | 169 | 3.0 | 3.0 | 0.00 | 0.00 | 0.00 | 42 | 1013.6 |
| 20260906000019 | 96 | 207 | 1.0 | 2.0 | 0.00 | 0.00 | 0.00 | 42 | 1013.7 |